DW8618 Nerja ES current weather conditions

sailwx.info

Wind from 190

Air temperature 15.0° C
Dewpoint 7.1° C

Last reported at 2019-Nov-19 15:01 UTC.
Time now 2019-Nov-19 15:34 UTC

Location: N 36°46' W 003°52'.
View on Google Maps.

See reports from other nearby stations

  
Tides and Currents Weather Stations Pressure Air Temp Water Temp Dewpoint Dewpoint Depression Visibility Wind Speed Wind Dir Waves Ship Positions
date/time (UTC)wind fromknots sea level pressurealtimeterstation pressurevisibilityair tempwater tempwave heightnotes
2019-Nov-19 15:01 190 15.0
2019-Nov-19 14:45 188 15.6
2019-Nov-19 14:30 219 15.0
2019-Nov-19 14:15 205 15.0
2019-Nov-19 14:01 204 15.6
2019-Nov-19 13:45 217 15.6
2019-Nov-19 13:30 198 16.1
2019-Nov-19 13:15 211 15.0
2019-Nov-19 13:01 194 15.0
2019-Nov-19 12:45 186 15.6
2019-Nov-19 12:30 188 15.6
2019-Nov-19 12:15 194 15.0
2019-Nov-19 12:01 185 15.0
2019-Nov-19 11:45 195 15.6
2019-Nov-19 11:30 172 15.6
2019-Nov-19 11:15 178 15.6
2019-Nov-19 11:01 185 15.6
2019-Nov-19 10:45 153 15.6
2019-Nov-19 10:31 196 15.0
2019-Nov-19 10:15 182 15.6
2019-Nov-19 10:01 186 15.6
2019-Nov-19 09:50 186 14.4
2019-Nov-19 07:45 005 11.7
2019-Nov-19 07:30 005 11.7
2019-Nov-19 07:15 005 11.7
2019-Nov-19 07:01 005 1 gusting 3 11.7
2019-Nov-19 06:45 005 1 gusting 3 11.7
2019-Nov-19 06:30 010 1 gusting 3 12.2
2019-Nov-19 06:15 013 2 gusting 4 11.7
2019-Nov-19 06:01 355 2 gusting 3 11.7
2019-Nov-19 05:45 355 1 gusting 3 12.2
2019-Nov-19 05:30 360 1 gusting 3 11.7
2019-Nov-19 05:16 179 11.7
2019-Nov-19 05:01 176 12.2
2019-Nov-19 04:45 176 12.8
2019-Nov-19 04:30 176 12.8
2019-Nov-19 04:15 176 12.8
2019-Nov-19 04:01 240 12.8
2019-Nov-19 03:45 241 12.8
2019-Nov-19 03:31 241 12.8
2019-Nov-19 03:15 186 12.8
2019-Nov-19 03:01 186 12.8
2019-Nov-19 02:45 137 12.8
2019-Nov-19 02:30 135 0 gusting 2 13.3
2019-Nov-19 02:15 030 13.3
2019-Nov-19 02:01 027 13.3
2019-Nov-19 01:45 042 0 gusting 2 13.3
2019-Nov-19 01:30 311 13.3
2019-Nov-19 01:15 028 13.9
2019-Nov-19 01:01 027 1 gusting 4 13.9
2019-Nov-19 00:46 052 13.9
2019-Nov-19 00:30 355 2 gusting 6 13.9
2019-Nov-19 00:15 067 13.3
2019-Nov-19 00:01 057 13.9
2019-Nov-18 23:45 066 13.9
2019-Nov-18 23:30 067 13.9
2019-Nov-18 23:16 056 14.4
2019-Nov-18 23:01 054 14.4
2019-Nov-18 22:45 064 15.0
2019-Nov-18 22:30 047 0 gusting 8 15.0
2019-Nov-18 22:15 044 15.0
2019-Nov-18 22:01 069 1 gusting 6 15.0
2019-Nov-18 21:46 074 1 gusting 5 15.0
2019-Nov-18 21:30 061 15.6
2019-Nov-18 21:16 059 1 gusting 9 15.6
2019-Nov-18 21:01 348 3 gusting 11 15.6
2019-Nov-18 20:46 038 6 gusting 12 15.6
2019-Nov-18 20:30 051 4 gusting 13 15.6
2019-Nov-18 20:15 046 7 gusting 20 15.6
2019-Nov-18 20:01 019 3 gusting 11 16.1
2019-Nov-18 19:45 019 9 gusting 24 15.6
2019-Nov-18 19:30 014 9 gusting 18 16.1
2019-Nov-18 19:15 011 11 gusting 20 16.1
2019-Nov-18 19:01 027 6 gusting 18 16.1
2019-Nov-18 18:46 012 8 gusting 17 16.1
2019-Nov-18 18:30 005 11 gusting 22 16.1
2019-Nov-18 18:15 009 6 gusting 13 16.1
2019-Nov-18 18:01 355 11 gusting 19 16.1
2019-Nov-18 17:45 322 5 gusting 14 16.1
2019-Nov-18 17:30 047 10 gusting 20 16.1
2019-Nov-18 17:15 055 8 gusting 21 16.7
2019-Nov-18 17:01 022 7 gusting 19 17.2
2019-Nov-18 16:45 005 6 gusting 18 17.2
2019-Nov-18 16:30 017 11 gusting 18 17.2
2019-Nov-18 16:15 005 8 gusting 16 17.8
2019-Nov-18 16:01 005 10 gusting 17 17.8
2019-Nov-18 15:45 321 6 gusting 13 17.8
2019-Nov-18 15:30 234 5 gusting 11 17.8
2019-Nov-18 15:15 342 6 gusting 10 18.3
2019-Nov-18 15:01 350 5 gusting 11 18.3
2019-Nov-18 14:45 328 6 gusting 16 18.3
2019-Nov-18 14:30 005 8 gusting 17 18.9
2019-Nov-18 14:15 315 6 gusting 16 18.9
2019-Nov-18 14:01 005 11 gusting 26 18.3
2019-Nov-18 13:46 005 11 gusting 19 18.3
2019-Nov-18 13:30 005 11 gusting 19 18.9
2019-Nov-18 13:15 287 6 gusting 15 18.9
2019-Nov-18 13:01 308 7 gusting 13 18.3
2019-Nov-18 12:45 326 8 gusting 13 18.9
2019-Nov-18 12:30 329 6 gusting 12 18.9
2019-Nov-18 12:15 292 3 gusting 9 19.4
2019-Nov-18 12:01 271 2 gusting 6 18.3
2019-Nov-18 11:45 336 8 gusting 12 18.3
2019-Nov-18 11:30 348 7 gusting 15 17.2
2019-Nov-18 11:16 344 9 gusting 18 17.2
2019-Nov-18 11:01 325 7 gusting 13 16.7
2019-Nov-18 10:46 355 6 gusting 12 17.2
2019-Nov-18 10:30 284 6 gusting 17 16.1
2019-Nov-18 10:15 291 6 gusting 19 16.1
2019-Nov-18 10:01 281 9 gusting 16 16.1
2019-Nov-18 09:45 273 8 gusting 17 16.1
2019-Nov-18 09:30 304 7 gusting 15 15.6
2019-Nov-18 09:16 350 6 gusting 14 15.6
2019-Nov-18 09:01 306 7 gusting 11 15.6
2019-Nov-18 08:45 323 6 gusting 15 15.0
2019-Nov-18 08:30 334 6 gusting 13 14.4
2019-Nov-18 08:16 327 8 gusting 15 14.4
2019-Nov-18 08:01 340 6 gusting 13 13.9
2019-Nov-18 07:46 350 7 gusting 11 13.3
2019-Nov-18 07:30 009 5 gusting 9 12.2
2019-Nov-18 07:15 360 3 gusting 6 12.2
2019-Nov-18 07:01 314 1 gusting 5 12.2
2019-Nov-18 06:45 312 0 gusting 3 12.2
2019-Nov-18 06:30 246 1 gusting 6 12.2
2019-Nov-18 06:15 297 12.8
2019-Nov-18 06:01 325 0 gusting 5 13.3
2019-Nov-18 05:45 240 2 gusting 10 13.3
2019-Nov-18 05:31 279 3 gusting 9 13.3
2019-Nov-18 05:15 250 0 gusting 6 13.9
2019-Nov-18 05:01 288 5 gusting 14 14.4
2019-Nov-18 04:45 294 6 gusting 9 13.9
2019-Nov-18 04:30 297 2 gusting 5 13.9
2019-Nov-18 04:15 314 1 gusting 3 13.9
2019-Nov-18 04:01 306 1 gusting 4 13.9
2019-Nov-18 03:45 338 13.9
2019-Nov-18 03:31 338 0 gusting 1 13.9
2019-Nov-18 03:15 286 13.9
2019-Nov-18 03:01 259 1 gusting 6 13.9
2019-Nov-18 02:45 232 1 gusting 4 13.9
2019-Nov-18 02:30 252 13.9
2019-Nov-18 02:15 250 0 gusting 2 13.9
2019-Nov-18 02:01 287 1 gusting 5 13.9
2019-Nov-18 01:46 290 0 gusting 6 14.4
2019-Nov-18 01:30 304 2 gusting 6 13.9
2019-Nov-18 01:15 291 2 gusting 6 13.9
2019-Nov-18 01:01 264 0 gusting 2 13.9
2019-Nov-18 00:45 327 2 gusting 6 13.9
2019-Nov-18 00:30 232 4 gusting 11 14.4
2019-Nov-18 00:15 277 2 gusting 10 13.9
2019-Nov-18 00:01 260 3 gusting 7 13.9
2019-Nov-17 23:45 250 3 gusting 7 13.9
2019-Nov-17 23:31 246 5 gusting 8 13.9
2019-Nov-17 23:15 253 3 gusting 6 13.9
2019-Nov-17 23:01 290 2 gusting 4 13.9
2019-Nov-17 22:45 322 3 gusting 6 13.9
2019-Nov-17 22:30 302 4 gusting 6 13.9
2019-Nov-17 22:15 307 2 gusting 8 13.9
2019-Nov-17 22:01 298 5 gusting 12 13.9
2019-Nov-17 21:45 272 4 gusting 9 14.4
2019-Nov-17 21:30 261 5 gusting 8 13.9
2019-Nov-17 21:15 271 4 gusting 7 13.9
2019-Nov-17 21:01 294 2 gusting 5 13.9
2019-Nov-17 20:45 311 3 gusting 8 13.9
2019-Nov-17 20:30 322 5 gusting 10 13.9
2019-Nov-17 20:15 290 0 gusting 4 13.9
2019-Nov-17 20:01 286 1 gusting 2 13.9
2019-Nov-17 19:46 274 1 gusting 4 13.9
2019-Nov-17 19:30 282 3 gusting 6 13.9
2019-Nov-17 19:16 285 3 gusting 8 13.9
2019-Nov-17 19:01 261 1 gusting 5 14.4
2019-Nov-17 18:46 297 2 gusting 6 14.4
2019-Nov-17 18:30 271 3 gusting 7 14.4
2019-Nov-17 18:15 304 3 gusting 9 14.4
2019-Nov-17 18:01 269 5 gusting 13 14.4
2019-Nov-17 17:45 293 6 gusting 11 14.4
2019-Nov-17 17:30 294 6 gusting 13 14.4
2019-Nov-17 17:15 273 8 gusting 14 14.4
2019-Nov-17 17:01 271 9 gusting 19 14.4
2019-Nov-17 16:45 244 12 gusting 19 15.0
2019-Nov-17 16:30 252 7 gusting 17 15.0
2019-Nov-17 16:15 232 6 gusting 13 15.0
2019-Nov-17 16:01 211 5 gusting 11 15.0
2019-Nov-17 15:46 232 4 gusting 13 14.4
2019-Nov-17 15:30 213 5 gusting 14 14.4
2019-Nov-17 15:15 205 6 gusting 17 14.4
2019-Nov-17 15:01 236 6 gusting 13 14.4